Wind_Speed
41 41 40 40 41 42 42 41 41 40 40 40 40 40 40 40 39 39 38 38 39 39 38 39 40 41 41 41 40 40 40 40 41 42 42 43 43 42 42 42 42 42 41 41 42 42 42 41 41 41 41 41 41 41 40 39 39 38 38 37 36 36 36 37 37 37 36 36 35 35 35 35 34 34 34 33 33 33 32 31 31 30 30 31 32 32
42 41 40 41 42 44 44 43 43 43 43 43 43 42 42 42 40 40 40 39 40 41 40 41 42 42 43 43 43 42 42 42 42 42 43 43 42 42 41 40 39 39 39 39 39 39 38 37 36 36 37 37 37 36 36 35 35 33 33 32 31 32 32 33 33 33 33 33 32 32 31 31 31 31 31 31 31 31 31 30 30 29 30 30 31 32
42 40 41 42 43 45 45 45 45 45 45 45 45 44 44 43 42 42 41 41 42 43 42 43 44 44 44 44 44 44 43 43 43 43 44 43 42 42 41 40 39 38 38 37 37 36 35 34 34 35 35 35 35 34 34 32 30 29 29 29 29 30 30 30 30 30 30 29 28 28 28 27 27 27 28 28 29 29 29 29 29 29 29 29 30 31
41 40 40 41 42 44 45 45 46 46 45 45 45 46 45 44 44 43 42 43 44 44 44 45 46 46 45 45 45 45 44 44 44 44 44 43 43 43 43 41 40 39 38 37 37 36 35 35 36 35 34 34 33 32 30 28 26 26 27 27 28 28 27 27 27 27 27 25 25 25 24 24 23 24 24 25 26 27 27 28 28 28 29 29 29 31
39 38 39 39 40 42 42 44 44 44 44 44 45 46 45 45 45 44 43 44 45 46 46 46 47 47 46 46 46 46 46 45 46 45 45 45 44 44 44 43 42 41 41 40 39 39 38 37 37 35 34 33 32 30 27 24 23 24 25 26 27 27 25 24 24 24 24 24 23 22 22 21 21 22 22 23 24 24 25 26 27 27 28 29 30 31
38 38 38 37 38 40 41 41 42 42 42 43 43 44 44 44 44 44 44 45 46 47 46 46 48 48 46 47 47 47 48 47 47 47 46 46 46 46 46 46 44 44 44 43 42 41 40 39 38 36 35 34 32 30 26 24 23 23 24 25 26 25 24 23 23 23 23 23 23 22 22 22 22 22 22 23 23 24 24 25 26 27 28 29 30 31
38 38 38 37 38 39 40 40 40 40 40 41 41 41 41 41 42 42 43 44 45 45 45 47 49 48 47 49 49 48 49 49 48 48 48 48 48 48 48 48 48 47 46 45 45 44 43 41 40 39 38 37 35 32 28 26 25 26 25 25 25 25 24 23 23 23 23 23 23 23 23 23 23 24 24 24 24 25 25 26 26 27 29 30 31 32
39 38 39 38 39 40 40 39 39 39 39 40 39 39 39 38 39 39 39 41 41 42 43 45 47 48 48 50 50 49 49 50 49 48 49 49 50 50 50 50 49 49 48 48 47 46 45 44 44 43 42 40 38 35 32 30 30 29 28 26 25 26 25 25 24 24 24 24 24 24 25 25 25 26 26 26 26 26 26 27 28 29 30 31 32 33
40 40 40 40 41 41 40 40 40 40 41 41 39 39 39 38 38 37 37 38 38 39 41 41 43 44 45 47 49 48 48 49 49 49 49 50 49 50 50 50 50 50 50 50 49 48 47 47 47 46 44 42 41 40 37 35 33 33 31 28 28 28 28 27 26 26 26 26 26 26 27 27 27 27 28 28 28 28 28 28 29 30 31 32 33 34
42 42 42 42 43 43 42 42 42 42 43 43 40 41 40 39 39 39 38 39 38 39 39 39 40 40 40 42 45 45 45 46 46 47 49 49 49 49 49 49 49 49 51 51 51 51 49 49 48 48 46 45 45 43 41 39 37 36 35 33 32 32 31 30 29 29 29 29 29 30 30 30 30 30 30 30 30 29 29 30 30 31 31 32 33 34
45 45 44 44 44 45 44 44 44 44 45 44 43 43 43 42 42 41 41 41 40 41 41 41 40 39 40 41 43 44 43 42 43 43 45 46 47 48 48 48 48 49 51 52 52 52 51 50 49 49 48 47 47 46 44 42 41 40 39 38 37 36 35 34 33 33 33 33 33 34 34 33 33 33 33 33 32 31 31 31 31 32 33 33 34 35
47 47 46 46 47 47 46 46 46 45 46 45 45 46 45 45 44 43 44 44 44 44 43 43 42 41 42 43 44 46 45 43 43 42 42 43 44 45 46 47 47 48 50 51 52 52 51 51 50 49 49 48 48 47 46 45 43 43 43 43 42 41 39 38 37 36 36 36 37 37 37 36 36 36 36 36 36 35 34 33 33 33 34 35 35 35
49 48 48 48 49 49 48 48 48 47 47 46 47 48 47 47 47 45 46 46 46 47 45 46 45 44 45 46 46 48 48 47 47 46 45 45 44 44 45 45 45 46 48 49 51 52 52 51 51 51 50 49 49 49 48 47 45 45 45 46 45 45 44 43 41 40 39 39 39 40 40 40 39 39 39 39 39 39 38 37 35 35 35 36 37 37
51 50 50 50 50 50 50 50 49 49 48 48 49 49 48 49 49 47 48 48 47 49 48 47 48 46 47 49 49 50 51 51 51 51 50 49 49 48 47 47 47 46 47 48 49 50 51 51 51 51 51 51 51 51 50 49 48 47 47 47 46 47 47 46 45 44 43 43 42 42 42 42 42 42 42 41 41 42 41 41 40 38 37 37 38 38
53 52 52 51 51 51 51 50 50 49 49 49 50 50 49 50 50 49 49 48 48 51 50 48 48 48 50 52 51 52 53 54 54 54 54 53 53 52 51 51 51 50 50 50 50 50 50 51 51 51 51 52 52 51 51 51 50 49 49 48 47 48 48 47 47 47 46 46 45 45 45 45 44 44 44 44 43 44 44 44 43 42 41 40 39 39
54 53 53 52 52 52 51 51 51 50 50 50 50 50 51 51 51 50 50 49 50 52 50 49 49 50 52 53 52 53 54 55 56 56 56 56 55 55 54 54 54 54 53 53 54 53 53 53 52 52 52 52 52 52 52 51 51 51 51 50 49 49 49 48 48 48 48 48 47 47 47 47 47 47 46 46 45 45 46 46 46 45 44 43 42 42
54 53 52 52 51 52 51 51 51 50 50 51 50 51 52 51 52 52 51 51 52 52 51 50 51 52 53 54 54 55 56 56 57 57 57 58 57 57 57 57 57 57 56 56 56 56 56 56 56 55 55 55 55 54 54 53 52 52 52 51 51 50 50 50 50 50 50 49 49 49 49 49 49 49 49 49 49 49 48 48 48 48 47 46 46 45
52 52 52 51 50 51 51 51 51 50 51 51 51 52 52 51 53 53 53 52 53 53 52 52 53 54 55 56 56 57 57 57 58 58 59 59 59 59 59 58 58 58 58 58 58 58 58 58 58 58 58 58 58 58 57 56 56 55 54 54 53 51 51 51 51 51 51 51 51 50 50 50 51 51 51 51 52 52 51 51 50 50 49 49 48 48
49 50 51 50 49 49 50 50 50 50 50 51 51 51 52 52 53 54 53 53 54 54 53 53 54 55 56 57 59 59 58 58 59 59 60 60 60 60 60 60 60 60 60 59 59 59 60 60 60 59 59 60 60 60 59 59 59 59 58 57 56 54 53 54 54 53 53 52 52 51 51 51 52 52 52 53 53 53 53 53 52 52 51 51 50 50
48 49 49 50 49 49 50 49 49 50 50 51 50 51 52 52 53 54 53 53 54 54 53 53 53 54 57 59 59 59 57 57 58 59 59 59 60 60 60 59 59 59 59 60 60 60 60 61 61 61 60 61 61 61 60 60 60 61 61 60 60 59 57 57 57 57 56 55 55 53 53 53 53 53 54 54 55 54 54 54 54 54 54 54 53 52
48 48 49 49 49 50 50 49 49 50 50 51 51 51 52 53 53 54 54 53 55 55 54 53 51 52 56 57 57 58 57 56 57 57 58 58 57 58 58 58 58 58 58 58 58 59 59 60 61 61 61 61 61 61 61 61 62 62 63 62 62 61 61 60 60 60 59 58 58 57 57 56 56 55 56 56 56 56 55 55 55 56 56 56 56 55
48 48 49 49 50 51 50 49 50 51 51 52 53 53 53 54 54 54 53 53 54 53 53 52 49 50 54 54 53 56 56 55 55 55 55 55 55 55 55 56 56 56 56 57 57 57 57 58 58 59 59 59 60 60 60 61 62 62 63 63 63 63 62 62 62 62 61 60 60 60 60 60 60 59 59 59 59 58 58 57 57 57 58 58 58 58
49 49 49 49 51 51 51 51 52 53 53 54 54 53 54 54 54 54 53 53 53 50 50 51 48 48 51 51 52 53 54 54 53 53 52 52 52 53 53 53 54 55 55 55 55 55 55 56 56 56 57 56 57 56 56 57 58 59 60 60 61 61 62 62 63 62 62 61 61 62 62 62 62 62 62 62 62 62 61 60 59 59 59 59 60 61
51 50 50 51 52 52 52 53 53 54 54 54 53 53 54 53 53 54 53 53 52 49 49 50 47 47 50 50 51 51 51 52 52 52 52 51 52 52 52 52 52 53 53 54 54 54 54 54 54 54 54 54 53 53 53 54 54 55 56 56 57 58 58 59 60 60 60 61 62 62 62 62 63 64 64 65 64 64 64 63 62 62 62 62 62 62
52 52 52 53 53 53 54 54 54 54 54 54 53 53 53 53 53 53 53 53 52 50 50 49 47 49 50 49 50 50 50 52 53 52 52 52 52 52 52 52 52 52 53 53 54 54 54 53 53 53 53 53 53 53 53 53 53 54 54 54 55 56 56 56 57 58 59 59 60 60 60 61 61 62 63 65 66 66 65 65 65 66 66 65 65 65
54 53 53 55 55 54 55 55 55 55 54 54 54 53 53 54 54 53 53 53 52 50 50 49 49 52 52 50 52 53 52 52 53 53 53 53 53 53 53 53 53 53 53 54 54 55 55 54 54 55 55 55 55 55 55 55 55 55 55 55 55 56 57 58 59 59 59 58 58 57 58 59 59 60 61 63 64 65 65 66 67 67 68 69 69 68
55 55 55 56 56 55 56 55 54 55 55 54 55 55 55 55 55 55 54 53 53 52 51 50 51 54 55 54 55 56 55 54 54 53 53 53 53 54 54 54 54 55 55 56 56 57 57 57 57 57 58 58 58 58 58 58 58 58 58 58 58 58 59 60 61 61 60 60 59 58 58 58 58 60 60 60 61 62 63 64 65 67 68 69 69 70
56 56 56 57 57 56 56 55 54 55 56 56 56 56 56 56 56 56 54 54 54 53 53 54 53 54 57 58 57 58 57 56 55 55 55 55 56 56 56 56 56 56 57 58 58 59 60 60 60 60 60 61 61 61 61 61 61 61 61 61 61 61 61 62 63 63 62 62 62 61 60 59 59 60 60 59 60 61 61 62 63 65 67 67 68 70
57 57 56 56 56 55 55 54 54 55 56 57 57 57 57 57 56 55 55 56 57 55 55 57 54 52 57 60 59 60 60 58 58 58 57 58 58 58 58 59 59 59 59 60 61 61 62 63 64 64 64 64 64 64 64 64 64 64 64 64 64 64 65 65 65 65 65 65 65 65 64 63 62 61 61 61 61 62 62 61 62 64 65 66 67 69
57 56 55 55 55 54 54 54 54 55 56 56 57 57 57 57 56 56 56 57 58 57 56 58 55 53 58 61 61 62 63 62 60 60 60 60 60 61 62 62 62 62 62 62 63 63 64 65 66 66 67 68 68 67 66 66 66 66 66 67 67 67 67 67 67 68 68 67 67 67 67 66 65 64 63 63 63 63 63 63 63 64 65 65 66 67
55 55 53 54 54 53 55 55 55 55 55 54 54 55 55 56 57 57 58 58 59 58 59 60 58 56 60 63 64 65 66 64 63 63 64 64 64 64 64 65 65 65 65 65 65 66 66 67 67 68 69 70 70 71 70 70 69 69 69 69 69 69 69 69 70 70 70 70 69 69 69 69 68 67 66 66 66 66 65 65 65 66 66 66 66 67
55 54 54 55 55 54 55 56 55 56 54 52 52 53 55 57 58 59 59 60 61 61 62 62 60 60 63 65 67 68 68 67 67 67 67 67 67 67 67 67 67 67 67 67 67 68 68 69 69 70 70 71 72 73 73 73 73 73 73 72 72 72 72 72 72 72 72 72 72 71 71 71 71 70 70 69 69 68 68 67 67 68 68 67 67 67
56 56 56 56 54 54 54 54 55 56 54 51 51 53 57 60 60 61 62 63 64 65 65 65 64 65 66 69 71 71 70 70 71 71 71 71 70 70 69 69 68 68 68 68 68 68 69 69 70 71 71 72 73 74 75 75 75 75 75 75 75 75 75 74 74 74 74 74 74 73 73 73 73 72 72 71 71 71 70 70 69 70 70 70 69 69
56 56 56 55 54 54 54 54 56 57 55 54 55 57 60 62 63 64 66 66 67 68 68 69 68 68 69 71 73 74 73 73 74 73 74 73 72 72 71 70 70 69 69 69 69 69 70 71 71 72 72 73 74 75 76 76 77 77 77 77 77 77 77 77 76 76 76 76 76 75 75 74 74 74 73 73 73 73 72 72 71 72 72 72 72 71
56 56 56 56 56 56 56 56 58 58 57 58 60 61 63 65 66 68 69 68 69 70 71 71 70 70 70 71 73 74 74 75 76 76 75 74 74 73 73 72 71 70 70 70 70 71 72 72 72 72 73 74 75 76 77 78 78 78 78 78 79 79 79 79 79 78 78 78 78 77 77 76 76 76 75 75 75 75 74 74 74 74 73 73 73 73
57 58 59 59 59 59 59 60 61 60 60 62 63 64 66 67 69 70 71 70 71 72 72 73 72 72 72 73 74 74 75 76 77 77 76 76 75 75 74 73 73 72 71 71 72 72 73 73 73 73 74 75 76 77 77 78 78 78 79 79 80 81 81 81 81 81 81 81 80 80 79 79 79 78 78 78 77 77 77 77 76 76 75 74 74 74
61 61 61 62 62 62 63 64 64 63 63 64 65 67 69 70 71 72 73 72 72 74 74 74 74 74 74 75 75 75 76 77 78 78 78 77 76 76 75 75 74 73 73 73 73 73 73 73 73 74 74 75 76 77 77 77 77 77 78 79 80 81 81 82 82 83 83 83 82 82 81 81 80 80 80 80 79 79 78 78 78 77 76 76 76 76
63 64 64 65 65 65 66 67 67 67 68 67 68 69 71 73 74 75 76 75 74 75 76 76 76 76 75 75 75 76 77 78 80 81 78 76 76 77 77 77 76 75 74 74 74 74 73 73 73 73 74 74 75 76 76 76 76 76 76 77 79 80 81 81 82 83 83 83 83 83 82 81 81 80 80 80 80 80 80 79 79 78 78 78 77 77
67 67 68 68 69 69 70 71 71 72 72 71 72 73 74 76 77 78 79 78 75 75 77 79 78 77 76 76 76 76 76 77 81 82 77 74 77 78 78 78 78 76 75 75 74 74 73 72 72 72 72 73 73 74 74 73 73 73 74 75 77 78 79 80 81 82 82 82 83 83 82 82 81 80 80 80 80 80 80 80 79 79 79 79 79 78
70 71 71 72 73 73 73 74 75 76 75 74 75 76 76 78 79 80 81 79 77 77 79 80 79 78 77 76 76 76 76 77 81 82 78 76 78 78 77 78 78 77 76 75 74 73 72 72 71 70 70 71 71 72 71 70 70 70 71 72 73 74 75 76 78 78 79 80 81 81 81 81 81 80 79 79 79 79 79 79 79 79 79 79 79 79
74 73 74 75 76 76 76 76 77 78 77 76 78 79 78 80 81 82 82 80 79 79 79 79 79 78 77 76 76 76 76 76 78 80 79 78 78 77 76 76 75 74 73 73 72 71 70 70 69 69 68 68 68 68 68 67 66 66 66 66 66 67 69 71 72 72 73 75 76 77 77 78 78 77 77 76 76 76 76 76 77 77 77 78 78 79
76 76 77 78 78 78 79 78 79 80 79 78 79 80 80 81 82 82 82 82 81 80 78 78 78 77 75 74 74 73 73 73 75 76 77 77 75 74 73 72 70 69 69 68 68 67 66 66 66 65 65 65 65 64 64 63 62 61 62 62 63 64 66 67 68 69 70 71 71 72 73 74 74 74 74 74 73 73 73 73 73 74 74 75 76 76
78 78 79 80 80 80 81 81 81 81 79 78 80 81 80 80 81 81 81 82 81 79 76 75 75 74 73 72 71 71 71 71 72 72 72 73 72 71 70 69 68 67 66 65 65 65 63 62 62 62 62 62 61 61 60 60 59 58 59 59 61 62 64 65 66 67 68 69 69 70 70 71 71 72 72 72 72 71 70 70 71 71 72 72 73 73
79 79 79 80 80 80 81 81 80 80 79 78 79 79 78 79 79 79 78 78 77 76 74 73 72 71 70 69 69 69 69 69 70 70 69 70 70 69 69 68 67 66 66 65 65 63 62 60 59 59 59 59 59 59 59 57 56 55 56 57 59 61 62 63 64 65 65 66 66 67 67 67 67 68 69 69 69 68 68 68 68 69 69 69 69 70
78 78 78 78 78 78 79 79 78 78 77 76 76 75 75 75 74 74 73 73 73 72 72 71 70 69 68 67 67 68 68 68 68 69 68 68 68 68 68 68 67 66 65 64 63 62 61 59 58 57 57 58 58 58 57 55 54 53 54 56 58 59 60 62 63 62 62 63 64 64 64 63 64 64 65 66 66 65 65 65 65 66 66 66 66 66
76 75 75 76 76 75 75 76 76 76 75 73 71 71 71 70 70 69 68 68 68 69 69 68 68 67 67 66 66 66 67 68 67 68 68 67 67 67 66 66 66 66 65 63 62 61 59 58 57 56 56 57 57 57 55 53 52 52 53 55 57 58 58 59 59 58 59 60 60 60 60 60 61 62 63 63 63 61 61 62 63 63 62 62 62 62
72 72 72 72 72 72 73 73 74 74 73 71 69 68 68 66 65 64 64 64 64 65 66 67 66 65 65 65 65 65 66 67 67 67 67 66 65 64 64 64 64 64 63 63 62 60 58 56 55 55 55 55 56 55 53 52 51 51 52 53 55 55 55 54 54 54 54 55 56 56 56 56 58 60 61 61 59 58 58 58 59 59 59 60 60 59
67 68 68 68 68 69 69 70 70 70 69 68 68 68 66 64 63 61 61 62 62 63 64 64 64 64 63 64 65 64 64 64 65 65 64 64 63 63 63 63 62 61 60 60 60 59 58 56 55 54 54 54 54 53 51 50 51 51 51 52 52 52 51 50 50 51 51 52 53 53 52 53 56 57 57 56 55 54 54 55 55 56 56 57 56 56
63 64 64 64 64 64 65 66 67 66 66 67 68 67 66 64 62 61 60 60 61 62 62 62 62 62 62 62 63 62 61 61 62 62 61 61 62 62 62 61 60 59 58 57 57 57 56 55 54 53 52 53 53 53 51 50 50 50 49 50 50 50 48 48 49 50 50 52 53 52 52 53 55 55 54 53 51 51 51 52 53 53 54 53 53 53
59 60 60 60 60 62 63 64 64 63 63 66 67 66 64 63 61 61 61 61 61 61 60 59 60 60 60 59 59 59 58 59 60 60 59 59 59 60 59 58 57 57 57 57 56 55 54 53 52 51 51 52 53 52 51 51 50 49 47 47 47 48 47 48 49 51 52 53 54 53 53 54 54 52 51 50 49 49 50 51 51 52 52 51 51 50
57 57 58 57 58 60 61 62 61 60 61 64 65 64 63 61 59 58 59 60 60 60 58 57 56 57 57 57 56 56 55 56 57 57 56 56 57 57 56 56 56 56 56 56 54 53 53 53 51 50 50 50 51 50 50 50 50 49 48 48 47 47 47 48 49 50 52 53 54 54 54 54 52 50 49 49 49 49 50 51 51 51 51 50 50 49
Wind_Direction
263 263 264 264 263 263 262 262 262 261 261 261 260 260 260 260 261 261 261 261 261 261 260 258 257 257 258 258 258 258 259 260 262 264 265 265 266 266 266 267 268 269 270 269 269 270 270 270 269 269 269 269 269 270 270 270 269 268 268 267 266 264 264 263 263 263 263 262 261 260 260 259 259 260 260 259 259 258 256 254 252 249 246 244 242 238
264 263 263 262 261 261 261 261 260 260 260 260 260 261 261 261 262 262 262 262 261 260 259 258 257 257 257 258 258 258 259 259 261 263 265 266 267 268 269 269 270 270 271 270 270 270 270 270 269 269 269 269 270 270 269 269 268 268 268 267 265 263 262 261 260 260 260 261 260 260 259 258 257 257 256 256 255 254 252 250 248 246 243 242 240 239
264 264 263 261 260 260 261 261 260 260 260 260 260 261 261 262 262 261 262 262 261 260 259 258 258 257 258 258 259 259 260 260 261 262 264 266 267 269 270 271 271 271 271 271 271 270 270 269 268 268 268 269 269 269 269 269 270 269 268 266 264 262 261 260 259 259 259 259 259 259 258 257 255 253 252 251 250 250 249 247 245 243 241 239 239 238
265 265 263 262 261 261 261 261 261 260 260 260 260 260 261 261 261 261 261 260 260 260 259 258 258 258 258 259 260 260 260 260 260 261 262 264 266 267 269 270 270 270 270 270 271 270 270 269 268 268 269 270 271 271 272 273 273 270 268 266 264 262 262 261 261 261 261 259 258 257 257 256 254 251 249 247 246 246 246 245 243 241 238 236 236 237
265 264 263 262 261 260 260 260 260 260 260 260 260 260 260 260 260 260 259 259 259 259 259 260 260 259 259 259 260 260 259 259 259 260 261 262 263 265 266 266 267 267 267 268 269 269 270 271 271 272 272 273 273 274 275 275 274 270 268 267 266 265 264 263 263 263 263 260 258 256 255 254 253 252 250 248 246 245 244 244 242 240 238 235 235 236
264 263 262 261 261 260 259 259 260 260 260 260 259 260 260 260 260 259 258 258 258 258 259 260 260 260 260 259 259 259 259 258 258 259 260 260 261 261 262 263 263 264 265 266 267 268 269 270 272 272 271 271 272 273 273 273 271 268 267 267 268 267 265 262 261 260 259 258 257 256 254 253 252 251 251 249 249 246 244 243 242 240 238 235 234 235
263 262 262 261 260 261 261 261 261 262 261 261 261 261 261 261 261 261 260 259 259 259 259 259 259 260 260 259 259 259 259 259 259 259 259 259 259 259 260 262 262 263 264 265 266 266 266 267 268 268 268 269 270 271 271 269 267 266 265 265 267 267 265 262 259 257 256 254 254 254 254 253 251 250 250 250 249 248 245 242 241 239 238 237 235 236
263 261 260 260 259 260 261 262 262 263 262 261 262 262 261 261 261 262 261 261 261 260 259 258 259 260 259 259 260 259 259 260 260 259 259 258 259 259 260 261 262 263 264 264 264 264 264 265 265 265 267 269 270 270 270 267 266 265 264 263 263 264 264 263 260 257 255 254 252 252 253 253 252 250 250 250 250 249 246 243 241 240 239 239 238 238
263 262 261 260 259 259 259 260 261 261 262 261 262 262 261 261 261 261 260 260 260 260 260 260 261 261 261 262 262 261 260 259 260 260 259 259 260 260 260 262 263 263 264 263 263 263 263 263 263 264 266 267 268 269 269 268 267 267 266 263 261 260 261 262 262 260 257 255 254 254 255 255 254 253 251 250 250 250 248 245 242 241 241 240 240 240
262 261 261 260 260 260 260 260 260 260 261 262 262 262 263 262 262 261 261 261 261 261 262 262 262 263 265 265 265 264 261 260 260 259 259 260 260 260 261 261 262 263 263 263 264 263 263 263 264 265 265 266 267 268 268 267 266 266 266 264 261 259 258 258 259 259 259 257 256 255 256 257 257 256 254 251 250 250 250 248 245 243 242 242 242 241
261 261 261 261 261 262 261 261 261 261 262 263 264 263 263 263 263 263 262 262 262 261 262 262 263 264 265 265 266 266 265 263 262 260 260 260 260 260 260 260 261 262 263 264 264 264 264 264 264 265 265 265 266 267 266 265 264 264 264 263 262 260 259 257 255 255 255 256 256 256 257 257 258 258 256 254 252 250 250 249 248 246 244 244 243 243
262 262 261 261 261 261 261 261 261 261 262 263 264 263 263 262 262 262 262 262 261 261 262 262 263 263 263 264 265 266 266 266 264 263 262 261 261 261 260 260 260 260 261 263 264 265 265 265 264 264 264 264 264 265 264 263 262 261 260 260 260 260 259 257 255 253 252 253 254 255 256 257 257 257 257 256 255 253 252 250 249 248 247 246 245 244
264 263 263 262 261 261 261 260 261 261 262 262 262 262 263 263 262 261 261 261 262 262 261 262 262 261 262 263 263 264 266 266 266 265 264 263 262 262 261 260 260 259 260 261 263 264 265 265 265 265 264 264 263 263 262 262 261 260 259 259 260 259 258 256 255 253 251 251 251 252 253 254 255 256 256 256 255 255 254 253 251 249 248 248 247 246
265 265 264 263 262 262 261 261 261 261 261 261 261 262 262 263 262 261 261 261 262 262 261 261 262 262 262 261 262 262 264 265 265 265 265 264 263 262 262 261 260 259 259 260 261 262 263 264 265 265 265 264 264 263 262 261 260 259 258 258 258 258 258 257 255 254 252 250 250 250 251 251 252 253 254 254 255 255 254 254 252 251 249 248 248 247
266 265 265 264 263 262 262 261 261 261 261 260 260 261 261 261 261 261 261 261 260 260 260 260 261 261 261 260 260 261 262 263 264 265 265 264 264 263 262 262 261 260 259 259 260 260 261 262 263 263 264 264 263 263 262 262 260 259 257 256 255 255 255 256 255 255 253 252 250 249 249 249 250 251 251 252 253 253 254 253 253 251 250 249 248 247
266 265 265 264 263 263 262 262 262 261 261 261 261 261 261 261 262 261 261 261 260 260 261 260 260 260 260 260 260 260 261 261 262 263 264 264 264 264 263 262 262 261 260 260 260 260 260 261 261 262 262 263 263 263 262 261 261 260 258 257 256 255 254 254 253 254 253 252 252 250 249 249 249 250 250 250 250 250 251 251 251 251 249 249 248 248
266 265 264 264 263 263 263 262 262 262 261 261 261 261 261 262 263 262 262 262 262 262 262 261 261 261 261 261 261 260 260 260 261 262 262 263 263 263 263 263 263 262 262 261 261 261 261 261 261 261 262 262 263 263 263 263 262 261 260 259 258 257 257 256 255 254 253 252 252 251 251 250 250 249 249 249 248 248 249 249 249 249 249 248 248 248
265 265 264 263 263 264 263 263 262 262 262 262 261 262 262 262 262 263 263 263 263 263 263 263 262 262 262 262 261 261 261 261 261 262 262 263 263 263 263 263 263 263 262 262 261 262 262 262 261 261 262 262 262 262 262 263 263 263 262 261 261 260 259 259 258 257 255 254 253 252 251 251 251 250 249 249 248 247 248 248 249 249 249 249 249 248
264 264 264 264 263 263 264 264 264 263 263 263 263 264 264 263 263 263 263 264 264 263 263 263 263 263 263 262 261 260 261 261 261 261 262 262 263 263 263 263 262 262 262 262 261 261 261 261 261 261 261 261 261 262 262 262 262 263 263 262 262 261 260 260 259 259 258 257 256 254 253 252 252 251 251 250 249 248 247 248 248 249 249 249 249 249
263 263 264 264 264 263 263 264 265 265 265 265 265 266 266 266 266 266 265 265 265 265 265 264 265 265 264 263 263 262 261 260 260 260 260 260 261 261 261 262 262 262 261 261 261 260 260 260 260 260 260 260 261 261 261 261 261 261 261 261 261 260 259 258 258 259 258 258 258 257 256 255 254 253 253 252 251 250 249 248 248 248 248 248 248 249
262 263 263 264 264 264 264 264 264 265 265 265 266 266 266 266 266 267 267 267 266 266 265 265 265 265 265 264 265 264 262 260 260 260 260 260 260 260 260 260 260 260 260 260 259 259 259 259 259 259 259 259 260 260 261 261 261 260 260 260 260 260 259 258 258 258 258 258 258 258 257 256 256 255 255 254 254 252 251 250 249 248 248 248 248 247
261 262 262 263 264 264 265 265 265 265 266 266 266 266 266 266 266 266 266 266 266 266 266 265 263 262 264 264 264 264 263 261 260 260 260 260 260 259 259 259 259 259 259 259 259 259 258 258 259 259 259 259 259 259 260 260 261 261 261 261 261 261 260 259 258 258 258 258 258 258 258 257 256 255 255 255 254 254 252 251 250 249 249 249 248 247
261 261 261 262 263 265 266 266 267 267 267 267 267 267 267 267 267 266 265 264 264 264 264 263 261 260 262 262 262 264 264 263 262 261 260 259 259 258 258 258 259 259 259 259 260 260 259 259 259 259 260 260 260 260 260 260 261 261 262 262 262 261 261 260 259 258 258 257 257 257 257 257 257 256 255 254 254 254 253 252 252 251 250 250 249 248
261 261 261 262 263 265 266 267 267 268 268 268 268 268 268 268 268 268 267 266 265 264 263 262 261 260 260 261 262 263 265 265 265 263 261 260 259 258 258 258 259 259 260 260 261 261 261 261 261 261 262 262 262 261 261 260 261 261 262 262 263 262 262 261 261 259 257 256 255 254 254 255 256 256 256 255 254 254 254 253 252 252 251 250 250 249
261 261 262 263 263 265 266 267 267 267 267 268 268 268 268 269 269 269 270 269 269 268 267 267 266 264 263 263 263 263 262 263 264 265 264 263 262 262 261 260 260 260 260 261 262 262 263 263 264 264 264 264 263 263 262 262 261 261 262 262 263 264 263 263 262 261 259 256 255 254 253 252 253 254 255 255 254 253 253 253 252 252 251 251 250 250
261 261 262 263 264 265 265 266 266 267 267 267 267 267 267 267 268 268 268 269 270 270 270 270 271 270 268 267 267 265 264 263 263 264 265 264 264 264 264 263 263 263 262 262 263 263 263 264 264 264 264 264 264 264 263 263 262 262 262 262 262 262 263 263 262 262 261 260 258 256 255 253 252 252 252 253 254 254 253 253 252 251 251 251 250 250
261 262 262 263 264 264 264 264 265 266 266 266 266 266 266 266 267 267 267 268 268 268 268 268 268 269 270 269 268 268 267 267 266 266 266 266 265 265 264 263 263 263 264 264 264 264 264 263 263 263 263 263 263 263 263 263 262 262 262 262 261 261 261 261 262 262 262 262 261 259 258 257 255 254 252 252 253 254 253 253 252 251 251 251 251 250
261 261 262 263 263 263 263 263 263 264 265 265 265 264 265 265 265 266 267 267 266 266 266 265 264 266 268 268 268 269 268 268 268 267 266 266 266 265 265 264 264 263 263 263 263 264 264 263 263 262 261 261 262 262 262 262 262 262 261 261 260 260 260 260 261 261 262 262 262 261 260 258 257 257 256 254 254 254 254 254 253 252 252 251 251 251
262 262 262 262 263 262 262 263 262 263 263 264 264 264 265 265 265 265 265 265 264 264 264 264 264 265 267 267 267 267 267 266 265 265 265 265 266 266 266 266 265 264 264 264 264 264 264 265 265 264 263 261 260 260 260 261 261 261 261 261 260 260 260 260 260 261 261 261 262 262 261 260 259 258 258 257 256 255 254 254 254 254 253 252 252 251
263 263 263 262 262 262 262 262 262 262 262 263 264 264 265 266 266 265 264 264 264 265 265 266 266 265 266 267 267 267 267 266 266 266 266 266 266 265 265 265 265 265 264 264 264 264 264 264 265 265 265 265 264 262 261 260 260 260 260 261 261 261 261 261 261 261 262 261 262 262 262 262 261 260 260 259 258 257 256 255 255 254 254 253 252 252
263 263 263 263 263 263 263 263 262 262 261 262 263 264 265 266 266 265 265 266 266 267 267 267 267 267 267 268 268 268 269 269 269 268 267 267 266 266 265 265 265 265 264 264 264 264 264 264 264 264 265 266 266 266 265 264 262 261 260 260 260 260 261 261 261 261 262 262 262 262 263 263 263 262 261 261 260 259 259 258 257 256 255 255 254 253
263 263 263 263 263 263 263 263 263 262 262 262 263 264 265 265 266 267 268 269 269 269 269 269 269 269 269 269 270 270 270 271 271 270 269 269 268 267 267 266 266 265 265 264 264 263 263 263 263 263 264 264 265 265 266 265 265 264 263 262 261 261 260 260 260 261 261 261 262 262 262 263 263 263 263 262 261 261 260 259 259 258 258 256 255 255
264 264 264 263 263 262 262 263 263 264 264 264 264 265 265 266 267 269 269 270 271 271 272 272 272 271 271 271 271 271 271 271 271 271 270 270 269 268 268 267 267 266 266 265 265 264 263 263 262 262 262 262 262 263 263 264 264 264 264 264 264 263 262 261 260 260 261 261 261 261 261 262 262 262 263 262 262 262 261 260 260 260 259 259 258 257
264 264 264 264 263 263 262 263 264 265 267 267 266 266 267 268 270 270 270 271 272 272 272 272 272 272 272 272 273 273 273 273 272 271 271 270 270 269 269 268 267 267 266 266 265 265 264 263 262 262 261 261 261 261 262 262 262 263 263 263 263 263 263 262 262 261 261 261 261 260 260 260 261 261 261 262 262 262 261 261 260 259 259 260 259 259
264 264 264 264 264 264 264 264 265 266 267 268 267 268 268 269 270 270 271 271 271 272 272 272 272 272 272 272 273 274 274 274 273 273 272 272 271 270 270 269 268 267 267 266 265 264 263 263 263 262 262 261 261 261 261 261 262 262 262 262 262 263 263 263 263 262 261 261 260 260 260 260 260 260 260 260 260 261 261 260 260 259 259 259 259 259
265 265 265 266 265 266 266 265 266 267 267 267 268 268 268 268 269 269 269 270 270 271 271 272 273 273 273 273 273 274 274 274 274 273 273 272 271 271 271 270 269 268 267 266 265 264 263 263 262 262 262 262 261 261 261 261 262 262 262 263 263 263 263 263 263 263 262 261 261 260 260 260 260 260 260 260 260 260 260 260 259 259 259 259 259 259
265 265 266 266 267 267 267 267 267 267 266 266 267 267 267 268 268 269 269 269 270 271 271 272 272 273 273 273 274 274 274 274 273 273 272 272 272 272 271 270 269 268 267 267 266 265 264 263 263 262 262 261 261 261 261 261 262 262 262 263 263 263 263 263 263 262 262 262 262 261 261 260 260 260 260 261 260 260 259 259 259 259 259 259 258 258
264 265 265 266 266 266 267 267 267 268 267 267 267 268 268 269 269 270 270 270 270 272 272 273 273 273 273 273 273 273 273 273 273 272 271 272 273 272 271 271 270 269 269 268 267 266 266 265 264 264 263 263 262 262 261 261 261 261 261 262 262 262 262 262 262 262 262 262 262 262 261 261 260 260 260 260 260 260 260 259 259 259 259 259 259 259
266 266 266 267 267 267 267 268 268 269 269 269 270 270 270 271 271 272 272 272 272 273 273 273 273 273 273 273 273 272 272 272 272 272 272 272 272 271 271 271 271 271 270 270 269 268 268 267 266 265 264 264 264 263 263 262 262 261 261 260 260 261 261 261 261 261 261 261 261 261 261 261 260 260 259 259 259 259 259 259 259 259 259 259 259 259
267 267 267 268 268 268 268 268 269 269 270 270 271 271 271 272 272 272 273 273 274 274 273 274 274 274 273 273 273 272 272 272 273 273 273 272 270 270 271 271 271 271 271 271 271 270 270 269 268 267 266 265 265 264 264 263 262 261 261 260 260 260 260 260 260 260 260 261 261 261 261 261 261 261 260 260 260 259 259 259 259 259 259 259 258 258
268 269 269 269 269 269 269 270 270 270 270 271 271 272 272 272 272 273 274 274 274 273 273 273 273 273 273 273 273 272 272 272 273 274 274 272 271 271 271 271 271 271 272 272 271 271 270 270 269 268 267 266 265 265 264 264 262 261 261 260 260 260 260 259 259 260 260 260 260 260 261 261 261 261 261 261 260 260 260 260 259 259 259 259 258 258
269 269 269 270 270 270 270 270 270 271 271 272 272 272 272 273 273 274 274 274 273 273 273 273 273 273 273 273 273 273 273 273 272 273 274 274 274 274 273 273 272 272 272 271 271 270 270 269 269 268 268 267 266 265 265 264 263 262 261 261 260 259 258 258 258 258 258 258 258 258 259 259 260 260 260 260 260 260 260 259 259 259 259 259 258 258
269 269 269 270 270 271 271 271 271 271 272 272 272 272 272 273 273 273 273 273 274 274 274 274 274 274 274 274 274 274 273 273 273 273 273 274 275 275 275 275 274 274 273 272 270 269 269 268 268 268 267 267 266 266 265 264 264 263 262 262 261 260 259 258 258 257 257 257 257 257 258 258 259 259 259 259 259 259 259 259 259 258 258 258 258 258
269 270 270 270 271 271 272 272 272 273 273 272 272 272 272 272 272 272 273 274 274 275 275 275 275 274 274 274 274 274 274 274 273 273 273 274 274 275 275 275 274 273 273 272 271 270 270 269 268 268 268 267 267 266 266 265 264 263 263 262 261 260 259 259 258 258 258 258 258 258 258 258 259 259 259 260 260 259 259 259 259 259 259 258 258 257
270 271 271 272 272 272 273 273 274 274 273 273 272 272 272 272 272 272 273 274 274 275 275 275 275 275 275 274 274 274 274 273 273 273 273 273 274 274 274 274 274 273 272 271 271 271 270 270 269 269 269 269 268 267 266 265 264 263 262 261 260 259 258 258 258 258 258 258 258 259 259 259 259 259 259 259 258 258 258 258 259 259 259 259 258 258
271 272 272 273 273 274 274 275 275 275 274 274 274 273 273 273 273 273 273 273 274 274 275 274 274 274 274 274 274 274 273 273 273 273 273 273 272 272 272 272 272 273 272 272 271 270 269 269 269 269 268 268 268 267 267 266 265 263 262 261 260 259 258 258 258 258 258 258 259 259 259 259 259 259 258 258 258 257 257 257 257 258 258 258 258 257
272 273 273 273 274 274 275 275 275 275 276 276 276 275 275 274 274 275 275 274 274 274 274 274 274 274 274 273 273 272 272 272 272 272 272 272 272 271 271 270 269 270 270 271 271 271 271 271 270 269 268 267 267 266 266 266 265 263 261 260 259 259 259 259 260 260 260 259 259 259 259 258 258 258 257 258 258 258 257 257 257 257 257 257 257 257
272 273 273 273 273 274 274 275 275 276 277 278 278 277 277 276 276 276 275 275 274 274 273 273 273 273 272 272 271 271 270 271 271 271 271 271 271 270 270 269 269 269 269 270 271 271 272 271 270 269 268 268 267 266 265 263 262 261 260 259 259 259 260 261 261 261 260 260 260 259 257 257 256 256 256 256 257 257 256 256 256 256 255 255 256 256
273 273 273 273 274 274 275 275 276 276 277 278 277 277 277 278 278 277 276 275 274 273 272 272 272 271 270 270 270 270 270 270 270 270 270 270 270 269 269 270 271 271 271 270 270 269 269 268 267 267 266 266 266 266 265 263 261 260 259 259 260 260 261 261 261 260 260 259 259 258 257 256 255 255 255 256 256 256 256 255 255 254 254 255 255 255
273 273 274 274 275 275 275 275 275 275 276 276 275 276 277 277 277 277 277 276 274 273 272 272 271 271 271 271 270 270 270 270 270 269 269 269 269 269 270 270 270 270 269 268 268 268 267 267 266 264 263 262 262 263 264 264 264 263 262 261 260 260 259 259 259 258 258 257 257 256 255 255 254 254 255 256 256 256 256 255 255 255 255 255 255 255
274 274 275 275 275 275 275 275 276 276 275 274 275 276 276 276 276 276 276 275 275 275 275 274 274 273 273 272 271 270 270 270 269 269 268 268 267 267 267 267 267 267 266 266 266 267 267 266 265 264 263 262 261 262 262 263 264 265 264 263 262 261 259 258 256 256 255 255 255 255 255 255 255 255 254 254 254 253 254 254 254 255 255 256 256 256
Height
10594 10595 10597 10597 10597 10596 10596 10597 10598 10598 10599 10599 10599 10600 10600 10601 10602 10603 10605 10606 10607 10607 10608 10608 10607 10607 10606 10607 10607 10607 10607 10606 10605 10604 10605 10605 10606 10606 10607 10608 10608 10609 10610 10610 10610 10610 10611 10611 10611 10610 10610 10611 10613 10614 10616 10617 10617 10618 10618 10618 10619 10619 10619 10620 10620 10620 10621 10622 10624 10625 10626 10626 10627 10627 10628 10629 10630 10631 10632 10633 10634 10635 10636 10638 10639 10641
10589 10591 10593 10593 10591 10590 10591 10592 10593 10594 10594 10595 10595 10596 10596 10597 10599 10600 10600 10602 10602 10602 10604 10604 10603 10603 10602 10602 10603 10603 10603 10602 10602 10600 10600 10601 10602 10602 10602 10603 10604 10605 10605 10605 10605 10605 10606 10606 10606 10605 10606 10607 10609 10610 10610 10611 10612 10612 10612 10613 10614 10614 10614 10615 10615 10616 10617 10618 10619 10620 10622 10623 10623 10624 10624 10625 10626 10627 10628 10629 10630 10631 10632 10633 10635 10636
10584 10587 10587 10587 10586 10585 10585 10587 10588 10588 10589 10590 10591 10591 10592 10593 10595 10595 10596 10597 10597 10597 10598 10599 10598 10598 10598 10598 10598 10599 10599 10599 10598 10597 10596 10597 10597 10597 10598 10599 10600 10600 10600 10600 10600 10600 10601 10601 10601 10601 10602 10603 10605 10606 10606 10607 10608 10608 10608 10608 10609 10609 10609 10610 10611 10612 10613 10614 10615 10616 10617 10618 10620 10620 10621 10622 10622 10623 10624 10625 10626 10627 10628 10629 10631 10632
10579 10582 10582 10582 10581 10581 10580 10581 10582 10583 10584 10586 10586 10586 10587 10589 10590 10591 10592 10592 10591 10591 10592 10593 10593 10593 10594 10594 10594 10594 10595 10595 10594 10594 10593 10593 10593 10593 10594 10595 10595 10595 10595 10595 10595 10595 10596 10595 10596 10597 10598 10599 10601 10602 10603 10604 10605 10604 10604 10604 10604 10604 10605 10606 10607 10607 10609 10610 10611 10611 10613 10614 10615 10616 10617 10617 10618 10619 10620 10621 10622 10623 10624 10626 10627 10629
10575 10576 10576 10577 10576 10576 10576 10576 10576 10578 10579 10580 10581 10581 10582 10584 10585 10586 10587 10586 10586 10585 10586 10587 10586 10587 10589 10589 10589 10589 10590 10590 10589 10589 10590 10589 10589 10589 10589 10590 10590 10590 10590 10590 10590 10590 10591 10591 10592 10593 10594 10595 10597 10598 10600 10601 10601 10600 10600 10600 10600 10601 10602 10602 10603 10604 10604 10605 10606 10607 10609 10610 10611 10612 10612 10613 10614 10615 10616 10617 10618 10619 10621 10622 10624 10625
10570 10570 10571 10571 10571 10570 10570 10571 10571 10572 10574 10575 10575 10576 10577 10579 10579 10580 10582 10581 10580 10580 10582 10581 10579 10581 10583 10583 10583 10583 10583 10584 10585 10585 10585 10585 10584 10584 10583 10584 10585 10585 10585 10586 10586 10586 10587 10587 10588 10589 10590 10591 10592 10595 10597 10597 10597 10597 10597 10597 10596 10597 10598 10599 10599 10600 10601 10601 10602 10603 10605 10606 10607 10608 10608 10609 10610 10611 10612 10613 10614 10615 10617 10618 10619 10621
10565 10566 10566 10566 10566 10565 10565 10566 10567 10567 10569 10570 10570 10571 10573 10574 10574 10575 10576 10576 10575 10576 10577 10575 10573 10576 10578 10576 10577 10578 10578 10579 10580 10580 10580 10579 10579 10579 10579 10579 10579 10580 10581 10581 10582 10582 10582 10583 10583 10584 10584 10586 10588 10590 10592 10593 10593 10593 10593 10594 10594 10594 10594 10595 10596 10596 10597 10598 10599 10600 10601 10602 10603 10604 10605 10606 10607 10607 10608 10609 10610 10611 10612 10614 10615 10617
10560 10561 10561 10561 10561 10560 10561 10562 10562 10563 10563 10564 10566 10567 10568 10569 10570 10570 10571 10570 10571 10571 10571 10570 10569 10570 10572 10570 10571 10573 10573 10573 10574 10575 10574 10574 10574 10574 10574 10574 10575 10575 10576 10576 10576 10576 10577 10578 10578 10579 10580 10581 10583 10585 10587 10588 10589 10589 10589 10590 10591 10590 10591 10592 10592 10593 10593 10594 10595 10596 10597 10598 10599 10600 10601 10602 10603 10604 10605 10606 10607 10608 10609 10610 10611 10613
10554 10555 10555 10555 10555 10556 10557 10558 10558 10558 10558 10559 10561 10562 10563 10565 10565 10566 10566 10565 10566 10565 10565 10566 10565 10564 10566 10565 10565 10567 10568 10568 10569 10569 10569 10569 10569 10570 10570 10570 10570 10570 10570 10570 10570 10571 10572 10573 10573 10574 10576 10577 10577 10579 10582 10583 10584 10584 10585 10587 10587 10587 10588 10589 10589 10590 10590 10591 10592 10592 10593 10594 10595 10596 10597 10598 10599 10600 10601 10602 10603 10604 10605 10606 10608 10609
10548 10549 10550 10550 10549 10550 10552 10552 10553 10554 10553 10554 10557 10557 10558 10560 10560 10561 10561 10561 10561 10561 10560 10561 10561 10561 10561 10560 10558 10559 10561 10563 10564 10564 10564 10564 10564 10564 10565 10566 10566 10565 10564 10564 10564 10565 10567 10568 10568 10569 10571 10572 10572 10574 10576 10578 10579 10580 10580 10582 10582 10583 10584 10585 10586 10587 10587 10588 10588 10589 10589 10590 10591 10592 10593 10594 10595 10597 10598 10599 10600 10601 10602 10602 10604 10605
10542 10543 10544 10545 10545 10545 10546 10547 10548 10549 10548 10549 10552 10552 10553 10554 10554 10555 10556 10556 10556 10555 10555 10556 10556 10557 10557 10555 10553 10552 10554 10556 10557 10558 10558 10559 10559 10559 10560 10561 10561 10560 10558 10558 10558 10559 10561 10563 10563 10564 10565 10566 10567 10569 10571 10572 10574 10575 10575 10576 10577 10578 10579 10581 10582 10583 10584 10584 10585 10585 10586 10587 10588 10588 10589 10590 10591 10592 10594 10595 10596 10597 10597 10598 10599 10600
10536 10538 10539 10540 10540 10540 10541 10542 10542 10544 10544 10545 10546 10546 10547 10548 10548 10550 10550 10550 10550 10550 10551 10551 10552 10553 10551 10550 10548 10546 10547 10549 10550 10551 10552 10553 10553 10554 10554 10555 10555 10555 10554 10553 10552 10553 10555 10556 10558 10558 10560 10561 10562 10563 10565 10566 10568 10569 10570 10570 10572 10573 10574 10576 10577 10579 10579 10580 10580 10581 10582 10583 10584 10584 10585 10586 10587 10588 10589 10590 10591 10592 10593 10593 10594 10595
10530 10531 10533 10534 10533 10534 10535 10536 10537 10538 10539 10540 10539 10538 10541 10541 10542 10544 10544 10544 10544 10544 10545 10545 10545 10547 10546 10545 10543 10541 10541 10542 10542 10543 10544 10546 10547 10547 10548 10549 10550 10550 10550 10548 10547 10548 10549 10550 10551 10552 10553 10555 10556 10557 10559 10560 10562 10564 10564 10565 10566 10568 10569 10570 10572 10573 10574 10575 10576 10577 10577 10578 10579 10580 10581 10582 10583 10584 10585 10585 10586 10587 10588 10589 10589 10590
10524 10525 10526 10527 10527 10528 10529 10530 10531 10532 10533 10534 10533 10532 10535 10534 10534 10537 10537 10538 10539 10537 10538 10539 10539 10541 10541 10539 10538 10536 10535 10535 10535 10536 10536 10538 10539 10540 10542 10542 10543 10544 10544 10543 10543 10543 10544 10544 10545 10545 10546 10548 10548 10550 10552 10554 10556 10558 10558 10559 10561 10561 10562 10564 10566 10567 10569 10570 10571 10572 10572 10573 10574 10575 10576 10577 10578 10579 10579 10580 10581 10582 10583 10584 10584 10585
10517 10518 10518 10519 10521 10521 10522 10523 10525 10526 10526 10527 10527 10527 10528 10527 10527 10530 10530 10532 10532 10529 10531 10534 10534 10535 10533 10531 10532 10531 10530 10529 10528 10528 10529 10529 10531 10532 10534 10534 10535 10537 10537 10537 10537 10537 10538 10538 10539 10539 10540 10540 10541 10543 10544 10546 10548 10550 10551 10553 10554 10555 10556 10558 10559 10560 10562 10563 10564 10566 10567 10567 10568 10569 10571 10571 10572 10573 10574 10575 10576 10577 10578 10579 10579 10580
10509 10510 10511 10512 10513 10513 10515 10516 10517 10519 10519 10519 10520 10520 10520 10520 10520 10523 10523 10524 10524 10523 10525 10527 10527 10528 10525 10524 10526 10525 10523 10522 10521 10521 10521 10522 10523 10524 10525 10526 10527 10528 10530 10530 10530 10531 10532 10532 10533 10533 10533 10534 10534 10535 10537 10539 10540 10542 10543 10545 10547 10548 10549 10551 10552 10553 10555 10556 10558 10559 10560 10561 10562 10563 10565 10565 10566 10567 10567 10568 10569 10570 10572 10573 10574 10575
10501 10502 10504 10504 10505 10506 10508 10509 10509 10511 10512 10512 10513 10512 10513 10514 10514 10514 10516 10517 10516 10516 10519 10520 10520 10520 10518 10517 10518 10517 10516 10516 10515 10515 10514 10514 10515 10516 10517 10518 10519 10520 10521 10523 10523 10523 10525 10526 10526 10527 10527 10527 10528 10529 10530 10531 10533 10534 10535 10537 10540 10541 10542 10544 10545 10547 10548 10549 10551 10552 10553 10555 10555 10556 10558 10558 10559 10559 10560 10561 10562 10563 10565 10566 10568 10569
10494 10495 10495 10497 10499 10499 10499 10501 10502 10503 10504 10504 10505 10505 10506 10508 10507 10506 10508 10510 10510 10510 10512 10513 10513 10512 10511 10510 10509 10508 10509 10509 10509 10508 10508 10507 10508 10508 10509 10510 10511 10512 10512 10514 10515 10516 10516 10517 10519 10520 10520 10521 10521 10522 10523 10524 10525 10526 10528 10529 10532 10534 10535 10536 10537 10539 10540 10542 10544 10546 10547 10548 10548 10549 10550 10551 10552 10553 10554 10555 10556 10557 10559 10560 10562 10563
10488 10488 10488 10489 10492 10492 10492 10493 10494 10496 10496 10496 10498 10498 10499 10500 10500 10499 10501 10503 10502 10502 10505 10505 10505 10505 10504 10501 10499 10500 10502 10502 10501 10501 10501 10501 10500 10500 10501 10501 10502 10503 10504 10505 10506 10507 10507 10508 10510 10512 10513 10513 10513 10514 10516 10518 10518 10519 10520 10521 10523 10526 10528 10529 10529 10530 10532 10534 10536 10538 10540 10540 10541 10542 10542 10543 10544 10546 10548 10549 10550 10551 10552 10554 10556 10557
10483 10482 10482 10482 10484 10485 10485 10486 10487 10488 10488 10489 10490 10491 10491 10491 10491 10491 10493 10495 10494 10494 10497 10497 10498 10497 10493 10491 10490 10492 10494 10494 10493 10493 10493 10493 10494 10493 10493 10493 10493 10494 10495 10496 10497 10498 10498 10499 10501 10503 10504 10504 10504 10506 10508 10510 10510 10511 10512 10513 10514 10517 10519 10521 10521 10522 10524 10526 10528 10530 10531 10532 10533 10534 10535 10535 10537 10539 10541 10543 10544 10544 10545 10546 10548 10550
10477 10476 10476 10476 10477 10477 10478 10480 10480 10480 10481 10481 10482 10483 10483 10483 10484 10483 10485 10486 10485 10486 10488 10490 10492 10488 10482 10482 10483 10482 10484 10485 10485 10485 10485 10486 10486 10486 10486 10486 10486 10485 10486 10487 10488 10489 10489 10490 10492 10493 10495 10496 10496 10498 10499 10500 10501 10502 10503 10504 10505 10507 10510 10512 10513 10515 10516 10518 10520 10521 10523 10524 10525 10526 10527 10528 10529 10531 10533 10535 10536 10537 10538 10539 10541 10542
10471 10470 10470 10470 10470 10469 10471 10473 10473 10473 10474 10474 10474 10475 10475 10475 10476 10476 10478 10478 10477 10478 10479 10481 10484 10481 10475 10475 10475 10472 10474 10476 10477 10477 10478 10479 10479 10479 10479 10479 10479 10478 10478 10478 10479 10480 10481 10482 10483 10484 10486 10488 10489 10490 10491 10491 10492 10492 10494 10495 10496 10498 10500 10502 10504 10506 10508 10510 10512 10512 10514 10515 10516 10518 10519 10520 10521 10522 10525 10527 10529 10530 10531 10532 10533 10534
10463 10464 10464 10464 10463 10463 10464 10465 10465 10465 10465 10465 10466 10467 10467 10467 10467 10467 10469 10469 10469 10472 10472 10471 10475 10474 10469 10468 10468 10465 10466 10468 10469 10470 10471 10471 10472 10472 10472 10472 10472 10472 10472 10472 10472 10473 10474 10475 10475 10476 10477 10479 10481 10483 10484 10484 10484 10484 10485 10486 10487 10489 10490 10491 10494 10497 10499 10501 10503 10503 10505 10506 10507 10508 10509 10511 10512 10513 10515 10518 10521 10523 10524 10524 10525 10526
10456 10456 10457 10457 10457 10457 10457 10457 10457 10457 10457 10457 10458 10459 10458 10459 10459 10458 10460 10460 10461 10465 10464 10462 10466 10466 10461 10461 10461 10460 10460 10460 10460 10462 10462 10464 10464 10464 10465 10465 10466 10466 10466 10466 10466 10466 10467 10468 10469 10470 10470 10472 10473 10475 10476 10476 10477 10477 10478 10479 10479 10479 10481 10482 10483 10486 10489 10491 10492 10494 10496 10497 10497 10498 10499 10500 10502 10504 10506 10509 10512 10513 10514 10515 10516 10517
10448 10449 10450 10450 10450 10451 10450 10449 10449 10449 10450 10450 10451 10451 10450 10450 10451 10451 10450 10450 10452 10455 10454 10454 10457 10456 10453 10455 10454 10454 10455 10453 10452 10453 10454 10456 10456 10456 10457 10458 10459 10459 10459 10459 10459 10460 10461 10461 10462 10463 10463 10464 10465 10466 10467 10468 10469 10470 10470 10471 10471 10471 10472 10473 10473 10475 10477 10480 10482 10484 10486 10487 10488 10489 10490 10490 10491 10494 10497 10499 10502 10502 10503 10505 10507 10508
10441 10442 10443 10442 10443 10444 10442 10442 10442 10442 10443 10443 10442 10443 10443 10443 10443 10443 10443 10443 10444 10447 10446 10447 10448 10445 10444 10447 10446 10445 10446 10446 10446 10447 10447 10448 10449 10449 10450 10451 10451 10452 10453 10453 10453 10453 10454 10454 10455 10455 10456 10456 10457 10458 10459 10460 10461 10461 10462 10463 10464 10464 10463 10463 10463 10464 10467 10469 10472 10474 10476 10477 10479 10480 10481 10481 10481 10484 10487 10489 10491 10492 10493 10495 10497 10499
10433 10434 10435 10435 10435 10436 10435 10435 10436 10435 10435 10436 10435 10435 10435 10435 10435 10435 10436 10437 10437 10438 10440 10440 10441 10438 10436 10437 10436 10436 10437 10438 10439 10440 10440 10441 10441 10442 10442 10443 10444 10445 10445 10446 10446 10446 10446 10447 10447 10448 10448 10448 10449 10449 10450 10451 10452 10453 10453 10454 10455 10456 10455 10455 10455 10455 10457 10459 10462 10464 10466 10467 10469 10470 10471 10473 10474 10475 10477 10479 10480 10482 10483 10485 10487 10489
10425 10426 10427 10427 10427 10428 10427 10429 10430 10428 10427 10428 10428 10428 10427 10427 10427 10427 10429 10429 10428 10430 10432 10431 10433 10433 10430 10429 10428 10427 10429 10431 10431 10431 10432 10432 10432 10433 10434 10435 10436 10437 10437 10438 10438 10438 10438 10438 10439 10439 10440 10440 10441 10441 10441 10441 10442 10443 10444 10445 10445 10446 10446 10446 10446 10447 10448 10450 10452 10454 10456 10458 10460 10460 10462 10464 10465 10466 10467 10469 10471 10472 10473 10475 10477 10477
10416 10417 10419 10419 10418 10419 10420 10421 10422 10422 10421 10420 10419 10420 10420 10420 10421 10421 10421 10420 10419 10421 10422 10421 10426 10429 10423 10420 10421 10420 10419 10422 10423 10423 10424 10424 10425 10425 10426 10426 10427 10427 10428 10428 10429 10429 10429 10429 10428 10429 10430 10430 10431 10432 10432 10433 10433 10433 10434 10435 10435 10436 10437 10437 10438 10438 10440 10441 10442 10444 10446 10448 10450 10452 10453 10454 10455 10456 10458 10460 10461 10462 10464 10465 10466 10467
10407 10408 10411 10411 10410 10412 10413 10413 10414 10414 10413 10413 10412 10412 10412 10412 10413 10413 10413 10411 10409 10412 10414 10413 10418 10422 10415 10411 10413 10412 10410 10412 10415 10416 10416 10416 10417 10417 10416 10417 10417 10418 10419 10419 10420 10420 10420 10419 10419 10418 10418 10419 10420 10421 10423 10424 10424 10424 10424 10425 10426 10427 10427 10428 10429 10429 10430 10432 10433 10434 10435 10438 10440 10442 10443 10444 10446 10447 10448 10450 10451 10452 10453 10454 10456 10457
10399 10400 10402 10401 10402 10404 10404 10403 10405 10405 10405 10406 10406 10406 10405 10404 10403 10402 10402 10402 10402 10404 10405 10404 10409 10412 10406 10402 10403 10402 10402 10404 10405 10406 10406 10406 10407 10407 10407 10408 10408 10409 10410 10410 10410 10411 10410 10410 10410 10409 10409 10408 10408 10409 10410 10412 10414 10414 10415 10416 10417 10417 10418 10418 10418 10419 10420 10422 10423 10424 10425 10427 10429 10431 10433 10434 10435 10436 10438 10439 10441 10442 10442 10444 10445 10446
10391 10392 10393 10392 10394 10397 10395 10395 10395 10395 10397 10400 10401 10400 10397 10394 10393 10393 10393 10393 10394 10394 10394 10396 10400 10401 10397 10393 10392 10392 10393 10395 10395 10394 10394 10395 10396 10396 10397 10398 10398 10399 10400 10401 10401 10401 10401 10402 10402 10401 10400 10400 10399 10399 10399 10400 10401 10402 10404 10405 10406 10407 10408 10408 10408 10409 10410 10411 10413 10414 10415 10416 10418 10419 10421 10423 10424 10426 10427 10428 10430 10430 10431 10433 10434 10436
10382 10383 10384 10384 10387 10388 10387 10387 10386 10385 10389 10393 10393 10391 10387 10384 10385 10386 10385 10384 10384 10384 10385 10387 10389 10389 10386 10384 10382 10382 10384 10385 10384 10384 10383 10383 10385 10385 10386 10387 10388 10389 10390 10390 10390 10391 10391 10391 10391 10391 10391 10391 10390 10389 10388 10389 10389 10391 10392 10392 10393 10395 10396 10397 10398 10399 10399 10400 10402 10404 10405 10406 10408 10409 10410 10411 10413 10414 10416 10418 10419 10420 10420 10422 10423 10425
10374 10374 10375 10376 10378 10379 10379 10380 10378 10377 10381 10383 10383 10381 10378 10376 10377 10376 10375 10376 10376 10375 10375 10376 10377 10378 10377 10375 10371 10371 10373 10373 10372 10372 10372 10372 10373 10374 10375 10376 10378 10378 10379 10379 10379 10379 10379 10379 10379 10380 10380 10380 10380 10379 10378 10378 10379 10380 10381 10381 10381 10382 10383 10385 10387 10388 10389 10390 10391 10393 10395 10396 10398 10399 10399 10400 10402 10403 10404 10406 10408 10408 10409 10410 10412 10414
10366 10366 10366 10368 10369 10369 10371 10372 10370 10371 10373 10373 10372 10372 10370 10368 10368 10366 10365 10367 10367 10366 10365 10365 10366 10368 10367 10366 10363 10362 10362 10361 10359 10359 10360 10361 10361 10362 10363 10364 10366 10367 10368 10368 10368 10367 10367 10367 10368 10368 10368 10368 10368 10367 10367 10367 10368 10369 10370 10370 10371 10371 10371 10373 10374 10376 10377 10378 10380 10382 10384 10385 10387 10388 10389 10390 10391 10392 10393 10394 10395 10397 10398 10399 10401 10402
10357 10357 10357 10358 10360 10361 10362 10362 10361 10363 10365 10363 10362 10362 10361 10359 10358 10356 10356 10358 10358 10356 10355 10355 10356 10357 10357 10356 10354 10353 10352 10350 10347 10347 10348 10348 10349 10350 10350 10352 10353 10354 10355 10356 10355 10355 10355 10356 10356 10357 10357 10356 10356 10356 10356 10356 10357 10358 10359 10359 10359 10360 10360 10361 10362 10363 10364 10366 10368 10370 10372 10374 10375 10377 10378 10379 10380 10381 10382 10382 10383 10385 10387 10389 10390 10391
10348 10348 10349 10349 10350 10351 10351 10351 10352 10353 10354 10354 10354 10353 10350 10349 10348 10346 10346 10349 10349 10346 10346 10346 10346 10346 10347 10345 10345 10343 10341 10338 10335 10334 10335 10336 10337 10338 10338 10338 10340 10341 10342 10342 10342 10342 10343 10344 10345 10345 10345 10345 10344 10344 10345 10346 10347 10348 10348 10348 10347 10347 10348 10349 10349 10350 10351 10353 10355 10357 10359 10362 10364 10365 10366 10367 10368 10370 10370 10371 10372 10374 10376 10378 10379 10380
10339 10339 10340 10340 10340 10341 10340 10340 10341 10342 10342 10344 10344 10342 10340 10338 10337 10336 10334 10337 10339 10338 10336 10335 10335 10336 10336 10336 10335 10333 10330 10327 10322 10319 10324 10328 10327 10325 10324 10324 10326 10328 10328 10329 10329 10329 10331 10332 10332 10333 10333 10333 10332 10332 10333 10335 10336 10337 10338 10337 10335 10334 10335 10335 10336 10336 10338 10339 10341 10343 10345 10348 10350 10353 10354 10355 10356 10357 10358 10360 10362 10364 10365 10366 10368 10369
10330 10330 10330 10329 10330 10331 10330 10329 10330 10329 10330 10332 10332 10331 10330 10327 10326 10325 10322 10324 10330 10329 10325 10322 10323 10324 10324 10324 10323 10320 10319 10317 10308 10303 10314 10321 10315 10311 10312 10312 10312 10314 10315 10315 10316 10317 10318 10319 10320 10321 10321 10321 10320 10319 10321 10323 10324 10325 10326 10325 10323 10323 10323 10323 10323 10324 10325 10327 10328 10329 10331 10334 10336 10339 10341 10342 10344 10345 10347 10349 10351 10353 10354 10355 10357 10359
10320 10320 10320 10319 10319 10319 10319 10320 10319 10317 10319 10321 10320 10319 10320 10317 10315 10313 10310 10312 10318 10318 10313 10310 10310 10311 10311 10311 10310 10308 10308 10307 10297 10292 10301 10306 10301 10300 10303 10301 10300 10302 10302 10303 10304 10304 10305 10306 10307 10308 10308 10308 10307 10307 10308 10310 10312 10313 10313 10312 10312 10312 10312 10312 10311 10313 10315 10315 10316 10317 10319 10321 10323 10326 10328 10330 10331 10333 10335 10337 10339 10341 10343 10345 10347 10348
10308 10309 10309 10308 10308 10308 10308 10309 10308 10305 10307 10311 10309 10307 10308 10306 10302 10300 10299 10301 10304 10303 10301 10299 10297 10298 10299 10298 10298 10296 10296 10296 10290 10284 10285 10287 10287 10290 10291 10290 10290 10292 10292 10292 10292 10292 10293 10293 10293 10294 10294 10294 10294 10294 10295 10297 10299 10300 10300 10301 10301 10302 10301 10300 10301 10302 10304 10304 10305 10306 10307 10309 10311 10313 10316 10318 10320 10322 10324 10326 10328 10329 10331 10334 10335 10337
10297 10298 10298 10296 10296 10296 10295 10296 10296 10293 10296 10300 10297 10294 10295 10293 10290 10289 10288 10286 10286 10287 10289 10288 10286 10286 10286 10286 10286 10285 10284 10283 10280 10276 10273 10273 10274 10276 10277 10278 10280 10280 10280 10281 10280 10280 10281 10281 10281 10282 10281 10281 10282 10283 10283 10284 10286 10288 10289 10289 10290 10289 10288 10288 10289 10290 10291 10293 10294 10296 10297 10298 10300 10302 10304 10306 10308 10311 10313 10314 10316 10318 10320 10321 10323 10325
10285 10286 10286 10284 10284 10285 10283 10283 10283 10282 10285 10287 10284 10282 10283 10281 10277 10277 10276 10273 10272 10274 10276 10276 10275 10275 10275 10275 10274 10273 10272 10271 10269 10267 10265 10264 10263 10263 10264 10265 10266 10267 10267 10268 10268 10268 10269 10271 10271 10271 10271 10270 10271 10271 10272 10274 10276 10277 10278 10278 10278 10277 10277 10278 10278 10279 10280 10282 10284 10285 10286 10288 10290 10291 10293 10294 10296 10300 10302 10304 10305 10307 10308 10310 10312 10314
10273 10274 10274 10273 10273 10273 10271 10270 10270 10271 10272 10272 10270 10269 10270 10268 10265 10265 10264 10263 10262 10263 10263 10264 10263 10263 10264 10264 10262 10260 10260 10259 10257 10256 10256 10255 10253 10253 10253 10253 10254 10254 10254 10254 10255 10256 10258 10260 10261 10261 10261 10261 10261 10261 10262 10263 10266 10268 10268 10268 10267 10266 10266 10267 10267 10269 10271 10272 10274 10275 10277 10279 10281 10282 10283 10285 10287 10290 10292 10294 10295 10296 10298 10300 10302 10304
10262 10263 10263 10262 10261 10260 10259 10257 10257 10257 10257 10257 10257 10257 10256 10255 10255 10255 10255 10254 10252 10251 10251 10252 10251 10251 10251 10252 10251 10249 10248 10247 10246 10245 10245 10245 10244 10243 10243 10242 10242 10242 10242 10243 10244 10245 10246 10249 10251 10252 10252 10252 10251 10251 10252 10254 10256 10258 10258 10257 10256 10256 10256 10257 10258 10260 10262 10263 10264 10266 10267 10270 10271 10272 10273 10274 10277 10280 10282 10284 10285 10286 10288 10291 10293 10295
10251 10252 10252 10251 10249 10248 10248 10246 10244 10242 10242 10243 10245 10244 10243 10243 10243 10244 10245 10245 10243 10241 10240 10240 10240 10240 10240 10240 10240 10238 10237 10236 10235 10235 10234 10234 10234 10233 10233 10232 10231 10230 10231 10232 10233 10234 10236 10239 10241 10242 10243 10242 10241 10241 10243 10245 10247 10249 10248 10246 10246 10246 10247 10248 10250 10252 10254 10255 10255 10257 10259 10260 10261 10262 10262 10264 10267 10271 10273 10274 10276 10278 10280 10281 10283 10286
10242 10242 10241 10240 10239 10238 10236 10234 10232 10230 10230 10230 10231 10230 10230 10231 10233 10234 10234 10234 10233 10232 10230 10229 10229 10229 10229 10229 10228 10227 10226 10225 10224 10224 10223 10223 10223 10223 10222 10222 10222 10221 10221 10222 10222 10223 10225 10229 10232 10233 10233 10233 10232 10233 10235 10236 10238 10238 10238 10237 10237 10237 10239 10241 10243 10244 10245 10246 10247 10248 10250 10251 10251 10251 10252 10255 10259 10262 10265 10266 10268 10269 10271 10273 10275 10277
10233 10232 10230 10230 10229 10227 10225 10223 10222 10221 10220 10220 10218 10217 10217 10219 10221 10223 10223 10223 10222 10221 10219 10218 10218 10218 10218 10217 10216 10216 10216 10215 10214 10214 10213 10213 10213 10213 10212 10211 10212 10213 10214 10214 10214 10214 10216 10219 10221 10222 10223 10223 10223 10224 10226 10228 10228 10228 10229 10229 10229 10230 10232 10235 10236 10236 10237 10237 10237 10239 10241 10241 10241 10242 10244 10248 10251 10254 10256 10258 10259 10260 10262 10264 10267 10269
10223 10221 10220 10220 10219 10218 10216 10214 10212 10212 10212 10209 10206 10205 10205 10207 10209 10210 10211 10211 10210 10209 10208 10208 10207 10207 10207 10206 10205 10205 10207 10206 10205 10204 10204 10204 10203 10203 10202 10203 10204 10205 10205 10205 10205 10206 10207 10210 10211 10213 10214 10214 10214 10214 10216 10218 10218 10220 10221 10222 10223 10224 10226 10228 10227 10228 10228 10228 10228 10229 10231 10231 10232 10234 10237 10241 10244 10247 10248 10250 10251 10252 10254 10257 10259 10261
10213 10212 10211 10211 10210 10208 10206 10204 10203 10205 10204 10198 10194 10195 10196 10197 10199 10199 10198 10197 10197 10196 10197 10197 10197 10197 10197 10197 10196 10196 10197 10197 10195 10194 10195 10196 10194 10194 10194 10195 10196 10196 10195 10195 10196 10197 10198 10200 10202 10204 10205 10205 10205 10205 10207 10209 10210 10211 10213 10215 10216 10217 10219 10219 10219 10219 10219 10218 10218 10220 10222 10222 10224 10228 10231 10234 10237 10239 10240 10241 10243 10245 10247 10249 10251 10253
10204 10203 10202 10202 10202 10199 10196 10194 10194 10195 10193 10188 10185 10186 10186 10187 10190 10191 10188 10186 10185 10184 10185 10187 10188 10187 10186 10186 10187 10187 10188 10187 10185 10184 10186 10186 10185 10185 10186 10186 10186 10186 10185 10185 10187 10189 10189 10190 10192 10194 10195 10196 10197 10198 10200 10201 10202 10203 10205 10206 10207 10208 10209 10210 10210 10210 10210 10210 10210 10212 10214 10215 10219 10222 10225 10228 10230 10232 10232 10233 10235 10237 10239 10241 10243 10245